Terminal Aerodrome Forecast
Issued by NWS

Home | Current Version | Previous Version | Text Only | Print | Product List | Glossary On
Versions: 1 2 3 4 5 6 7 8 9 10 11 12 13 14 15 16 17 18 19 20
000
FTUS43 KGRR 202300
TAFLAN
TAF
KLAN 202324Z 2100/2124 28010KT P6SM SKC
     FM210100 27002KT 6SM HZ BKN100
     FM210600 00000KT 4SM BR VCSH BKN050
     FM211100 00000KT 1/2SM FG BKN001
     FM211300 22003KT 2SM BR BKN100
     FM211400 20003KT 4SM HZ BKN100
     FM211700 22008KT P6SM VCTS BKN040CB=

USA.gov is the U.S. government's official web portal to all federal, state and local government web resources and services.